HRC MONOBLOCK CAMERA

Last updated on Fri Sep 04 2026 00:02:05 GMT+0000 (Coordinated Universal Time)

1 66052U 98067XR 26246.01904956 .00134240 17665-4 44953-3 0 9994 2 66052 51.6161 235.2802 0005822 64.7990 295.3619 15.89898602 50315
UTC large
Height (km)
Speed (km/s)
/
Latitude / Longitude
Inclination (degrees)
Orbital Period (minutes)
Azimuth
Elevation
Range (km)
Doppler Factor

Next 0 passes for location: London (51.5072 / 0.1276)

No passes found over London.
HRC MONOBLOCK CAMERA